EW8473 Weather Reports


time (UTC)temp
F
wind
direction
speed
knots
gust
knots
rain 1hr
in
rain 24hr
in
rain mn
in
humidity
%
barometer
mb
20260504222030 77 184 2.6 12.2 0.00 0.00 0.00 42 1015.3
20260504221529 78 188 4.3 10.4 0.00 0.00 0.00 42 1015.5
20260504221028 78 261 3.5 12.2 0.00 0.00 0.00 41 1015.6
20260504220526 78 211 4.3 7.8 0.00 0.00 0.00 42 1015.6
20260504220024 78 243 4.3 13.0 0.00 0.00 0.00 41 1015.4
20260504215523 78 223 6.1 13.0 0.00 0.00 0.00 41 1015.4
20260504215022 78 203 4.3 9.6 0.00 0.00 0.00 41 1015.3
20260504214520 78 207 4.3 8.7 0.00 0.00 0.00 40 1015.4
20260504214018 78 254 4.3 8.7 0.00 0.00 0.00 38 1015.5
20260504213517 78 202 4.3 12.2 0.00 0.00 0.00 38 1015.4
20260504213015 79 237 4.3 12.2 0.00 0.00 0.00 39 1015.4
20260504212514 79 223 7.0 12.2 0.00 0.00 0.00 39 1015.6
20260504212013 79 200 5.2 11.3 0.00 0.00 0.00 38 1015.7
20260504211511 79 199 4.3 12.2 0.00 0.00 0.00 37 1015.6
20260504211009 79 270 6.1 12.2 0.00 0.00 0.00 36 1015.4
20260504210508 80 149 4.3 9.6 0.00 0.00 0.00 35 1015.5
20260504210015 80 247 3.5 10.4 0.00 0.00 0.00 38 1015.5
20260504205505 79 213 3.5 10.4 0.00 0.00 0.00 37 1015.7
20260504205003 79 101 2.6 7.8 0.00 0.00 0.00 38 1015.7
20260504204501 79 217 1.7 12.2 0.00 0.00 0.00 37 1015.8
20260504204101 79 210 4.3 12.2 0.00 0.00 0.00 36 1015.9
20260504203600 79 250 5.2 13.9 0.00 0.00 0.00 37 1015.9
20260504203101 79 221 7.0 13.9 0.00 0.00 0.00 38 1016.0
20260504202555 79 186 2.6 13.9 0.00 0.00 0.00 37 1016.2
20260504202058 79 274 7.0 13.9 0.00 0.00 0.00 38 1016.3
20260504201553 79 145 3.5 10.4 0.00 0.00 0.00 37 1016.3
20260504201053 79 170 2.6 14.8 0.00 0.00 0.00 37 1016.3
20260504200550 79 243 5.2 14.8 0.00 0.00 0.00 38 1016.5
20260504200048 79 180 6.1 10.4 0.00 0.00 0.00 37 1016.6
20260504195546 79 215 3.5 16.5 0.00 0.00 0.00 38 1016.7
20260504195045 79 275 7.0 16.5 0.00 0.00 0.00 37 1016.8
20260504194548 79 250 2.6 8.7 0.00 0.00 0.00 38 1016.8
20260504194043 79 219 5.2 12.2 0.00 0.00 0.00 38 1016.9
20260504193541 79 232 6.1 12.2 0.00 0.00 0.00 38 1016.8
20260504193039 79 290 5.2 13.0 0.00 0.00 0.00 38 1016.9
20260504192538 79 275 5.2 12.2 0.00 0.00 0.00 37 1017.0
20260504192036 80 267 6.1 11.3 0.00 0.00 0.00 38 1017.0
20260504191535 79 186 5.2 9.6 0.00 0.00 0.00 37 1016.9
20260504191034 79 275 4.3 11.3 0.00 0.00 0.00 37 1017.0
20260504190532 79 256 2.6 8.7 0.00 0.00 0.00 38 1017.1
20260504190030 79 168 4.3 8.7 0.00 0.00 0.00 39 1017.2
20260504185528 79 111 4.3 9.6 0.00 0.00 0.00 38 1017.1
20260504185026 79 92 3.5 11.3 0.00 0.00 0.00 38 1017.2
20260504184526 80 159 4.3 11.3 0.00 0.00 0.00 39 1017.4
20260504184024 80 200 2.6 9.6 0.00 0.00 0.00 40 1017.5
20260504183522 79 256 3.5 9.6 0.00 0.00 0.00 40 1017.5
20260504183020 79 157 3.5 7.8 0.00 0.00 0.00 39 1017.5
20260504182519 79 132 1.7 5.2 0.00 0.00 0.00 40 1017.6
20260504182018 78 98 1.7 9.6 0.00 0.00 0.00 40 1017.6
20260504181517 78 174 4.3 9.6 0.00 0.00 0.00 40 1017.6
20260504181019 79 171 5.2 8.7 0.00 0.00 0.00 39 1017.6
20260504180514 79 217 3.5 8.7 0.00 0.00 0.00 40 1017.5
20260504180012 79 318 0.9 9.6 0.00 0.00 0.00 39 1017.6
20260504175513 79 187 2.6 12.2 0.00 0.00 0.00 41 1017.6
20260504175015 79 129 3.5 12.2 0.00 0.00 0.00 40 1017.8
20260504174510 79 254 3.5 9.6 0.00 0.00 0.00 41 1017.8
20260504174006 78 259 4.3 8.7 0.00 0.00 0.00 42 1017.8
20260504173506 78 227 2.6 9.6 0.00 0.00 0.00 41 1017.8
20260504173005 78 257 3.5 9.6 0.00 0.00 0.00 41 1017.8
20260504172502 78 128 1.7 8.7 0.00 0.00 0.00 39 1017.6
20260504172100 77 197 0.9 10.4 0.00 0.00 0.00 39 1017.7
20260504171559 77 132 4.3 10.4 0.00 0.00 0.00 39 1017.9
20260504171058 77 190 4.3 9.6 0.00 0.00 0.00 38 1017.8
20260504170558 77 242 1.7 9.6 0.00 0.00 0.00 38 1017.7
20260504151022 76 207 2.6 5.2 0.00 0.00 0.00 42 1018.5
20260504150522 76 140 1.7 6.1 0.00 0.00 0.00 41 1018.4
20260504141004 71 303 0.9 5.2 0.00 0.00 0.00 53 1018.7
20260504140503 71 281 0.0 2.6 0.00 0.00 0.00 53 1018.5
20260504130545 66 315 0.0 1.7 0.00 0.00 0.00 8 1018.6
20260504110511 59 223 0.0 0.0 0.00 0.00 0.00 1 1017.8
20260504100557 60 223 0.0 0.0 0.00 0.00 0.00 1 1018.0
20260504081521 60 221 0.0 0.0 0.00 0.00 0.00 1 1017.7
20260504081020 60 221 0.0 0.0 0.00 0.00 0.00 1 1017.8
20260504080518 60 221 0.0 0.0 0.00 0.00 0.00 1 1017.8
20260504050528 63 220 0.0 2.6 0.00 0.00 0.00 30 1019.5
20260504045525 63 218 0.9 1.7 0.00 0.00 0.00 35 1019.5
20260504045023 63 217 0.0 2.6 0.00 0.00 0.00 34 1019.5
20260504044524 63 217 0.0 2.6 0.00 0.00 0.00 34 1019.6
20260504044020 64 217 0.0 1.7 0.00 0.00 0.00 35 1019.6
20260504043519 64 217 0.0 2.6 0.00 0.00 0.00 33 1019.7
20260504043023 64 217 0.9 2.6 0.00 0.00 0.00 37 1019.7
20260504042515 64 215 0.0 0.0 0.00 0.00 0.00 39 1019.7
20260504042014 64 215 0.0 0.0 0.00 0.00 0.00 42 1019.7
20260504041515 64 215 0.0 0.9 0.00 0.00 0.00 44 1019.7
20260504041012 65 215 0.0 0.0 0.00 0.00 0.00 45 1019.6
20260504040511 65 215 0.0 0.0 0.00 0.00 0.00 47 1019.6
20260504040013 65 215 0.0 0.9 0.00 0.00 0.00 48 1019.6
20260504035508 65 215 0.0 1.7 0.00 0.00 0.00 49 1019.5
20260504035005 65 215 0.0 1.7 0.00 0.00 0.00 51 1019.5
20260504034504 65 218 0.0 2.6 0.00 0.00 0.00 52 1019.6
20260504034006 65 217 0.0 1.7 0.00 0.00 0.00 54 1019.7
20260504033502 65 217 0.0 1.7 0.00 0.00 0.00 55 1019.6
20260504033101 65 217 0.0 2.6 0.00 0.00 0.00 55 1019.6
20260504032601 66 217 0.0 2.6 0.00 0.00 0.00 56 1019.7
20260504032058 66 221 0.0 3.5 0.00 0.00 0.00 56 1019.7
20260504031557 66 219 0.9 3.5 0.00 0.00 0.00 56 1019.7
20260504031054 66 229 0.9 3.5 0.00 0.00 0.00 57 1019.7
20260504030553 66 230 0.0 3.5 0.00 0.00 0.00 57 1019.7
20260504030052 66 212 0.9 2.6 0.00 0.00 0.00 57 1019.6
20260504025552 66 211 0.0 2.6 0.00 0.00 0.00 57 1019.6
20260504025049 67 209 0.0 1.7 0.00 0.00 0.00 56 1019.5
20260504024547 67 209 0.0 0.9 0.00 0.00 0.00 55 1019.5
20260504024045 67 209 0.0 1.7 0.00 0.00 0.00 55 1019.4
20260504023544 67 209 0.0 2.6 0.00 0.00 0.00 54 1019.5
20260504023043 67 209 0.0 2.6 0.00 0.00 0.00 53 1019.4
20260504022542 67 208 0.0 2.6 0.00 0.00 0.00 53 1019.4
20260504022039 68 208 0.0 2.6 0.00 0.00 0.00 53 1019.3
20260504021540 68 208 0.9 2.6 0.00 0.00 0.00 52 1019.3
20260504021042 68 178 0.0 2.6 0.00 0.00 0.00 51 1019.2
20260504020536 68 177 0.0 2.6 0.00 0.00 0.00 51 1019.1
20260504020036 68 166 0.0 2.6 0.00 0.00 0.00 50 1019.0
20260504015532 69 178 0.0 1.7 0.00 0.00 0.00 50 1019.0
20260504015032 69 178 0.0 2.6 0.00 0.00 0.00 49 1019.0
20260504014537 69 180 0.9 2.6 0.00 0.00 0.00 48 1019.0
20260504014027 69 169 0.9 3.5 0.00 0.00 0.00 48 1018.9
20260504013526 70 184 0.9 3.5 0.00 0.00 0.00 47 1018.9
20260504013025 70 196 0.0 2.6 0.00 0.00 0.00 47 1018.9
20260504012526 70 185 0.0 3.5 0.00 0.00 0.00 46 1018.9
20260504012022 71 189 0.9 3.5 0.00 0.00 0.00 46 1018.9
20260504011523 71 140 0.9 3.5 0.00 0.00 0.00 45 1018.8
20260504011018 71 183 0.0 1.7 0.00 0.00 0.00 44 1018.7
20260504010517 72 204 0.0 4.3 0.00 0.00 0.00 44 1018.7
20260504010016 72 209 1.7 4.3 0.00 0.00 0.00 43 1018.7
20260504005514 73 218 0.9 4.3 0.00 0.00 0.00 43 1018.6
20260504005016 74 222 1.7 4.3 0.00 0.00 0.00 42 1018.6
20260504004511 74 211 0.9 5.2 0.00 0.00 0.00 40 1018.6
20260504004010 75 28 0.0 0.0 0.00 0.00 0.00 40 1018.5
20260504003508 76 20 0.0 0.9 0.00 0.00 0.00 39 1018.5
20260504003007 76 360 0.0 0.9 0.00 0.00 0.00 38 1018.5
20260504002505 76 360 0.0 0.9 0.00 0.00 0.00 39 1018.5
20260504002006 76 9 0.0 1.7 0.00 0.00 0.00 38 1018.3
20260504001503 77 9 0.0 3.5 0.00 0.00 0.00 37 1018.3
20260504001001 77 303 0.9 4.3 0.00 0.00 0.00 37 1018.3
20260504000559 77 336 0.0 4.3 0.00 0.00 0.00 37 1018.3
20260504000125 77 355 0.0 2.6 0.00 0.00 0.00 37 1018.3
20260503235557 77 22 0.0 2.6 0.00 0.00 0.00 37 1018.3
20260503235059 77 312 0.0 2.6 0.00 0.00 0.00 37 1018.3
20260503234554 77 312 0.0 2.6 0.00 0.00 0.00 37 1018.4
20260503234053 77 41 0.9 4.3 0.00 0.00 0.00 36 1018.4
20260503233551 77 21 1.7 4.3 0.00 0.00 0.00 35 1018.4
20260503233049 77 360 1.7 4.3 0.00 0.00 0.00 36 1018.4
20260503232548 77 320 0.0 2.6 0.00 0.00 0.00 36 1018.5
20260503232047 77 340 1.7 2.6 0.00 0.00 0.00 35 1018.5
20260503231545 77 43 0.0 5.2 0.00 0.00 0.00 34 1018.5
20260503231044 78 35 0.9 4.3 0.00 0.00 0.00 35 1018.5
20260503230545 78 355 0.9 5.2 0.00 0.00 0.00 35 1018.6
20260503230041 79 44 1.7 7.0 0.00 0.00 0.00 34 1018.6
20260503225538 79 327 3.5 7.0 0.00 0.00 0.00 35 1018.6
20260503225037 79 281 0.0 2.6 0.00 0.00 0.00 33 1018.7
20260503224536 78 328 0.9 3.5 0.00 0.00 0.00 34 1018.7
20260503224035 78 5 0.9 4.3 0.00 0.00 0.00 34 1018.6
20260503223534 78 27 0.9 7.0 0.00 0.00 0.00 34 1018.7
20260503223033 78 323 0.9 3.5 0.00 0.00 0.00 33 1018.7
20260503222530 78 304 0.0 5.2 0.00 0.00 0.00 34 1018.7